Regional Weather Roundup
Issued by NWS Wakefield, VA

Home | Current Version | Previous Version | Text Only | Print | Product List | Glossary Off
Versions: 1 2 3 4 5 6 7 8 9 10 11 12 13 14 15 16 17 18 19 20 21 22 23 24 25 26 27

000
ASUS41 KAKQ 202315
RWRAKQ

REGIONAL WEATHER ROUNDUP
NATIONAL WEATHER SERVICE WAKEFIELD VA
700 PM EDT FRI OCT 20 2017

Note: "fair" indicates few or no clouds below 12,000 feet with no
significant weather and/or obstructions to visibility. * = Denotes
station may not report precipitation (e.g., rain,snow,etc.),
thunder or fog.

VAZ042-051-052>054-056-210000-
NORTHERN VIRGINIA

CITY           SKY/WX    TMP DP  RH WIND       PRES   REMARKS
WASH NATIONAL  PTCLDY    71  46  40 NW6       30.21R
DULLES         PTCLDY    64  45  49 NE3       30.21R
FORT BELVOIR   CLEAR     61  50  69 CALM      30.21R
QUANTICO       CLEAR     60  54  80 NW7       30.22R
FREDERICKSBRG* CLEAR     64  53  68 CALM      30.19S
STAFFORD*      CLEAR     58  53  85 CALM      30.24S
WARRENTON      CLEAR     59  42  52 CALM      30.21R
CULPEPER*      CLEAR     62  45  53 CALM      30.22R
MANASSAS*      CLEAR     60  46  59 CALM      30.21R
LEESBURG*      CLEAR     66  50  55 CALM      30.23R
WINCHESTER     CLEAR     59  45  58 CALM      30.22R
FRONT ROYAL*   CLEAR     64  45  48 CALM      30.21R
LURAY*         CLEAR     64  46  52 CALM      30.22R
$$

VAZ048-049-060>072-079>083-210000-
CENTRAL AND SOUTH CENTRAL VIRGINIA

CITY           SKY/WX    TMP DP  RH WIND       PRES   REMARKS
RICHMOND       PTCLDY    68  55  63 N3        30.19R
CHESTERFIELD*  NOT AVBL
PETERSBURG*    CLEAR     60  58  92 CALM      30.20R
HANOVER        CLEAR     64  58  80 CALM      30.21R
TAPPAHANNOCK*  CLEAR     63  44  49 CALM      30.21R
QUINTON*       FAIR      65  58  79 CALM      30.19R
CHARLOTTSVILLE CLEAR     72  50  45 CALM      30.20R
GORDONSVILLE*  CLEAR     63  56  76 CALM      30.20R
ORANGE*        CLEAR     63  54  72 CALM      30.21R
LOUISA*        CLEAR     59  55  88 CALM      30.20R
BUMPASS*       FAIR      62  58  87 CALM      30.21R
FARMVILLE*     CLEAR     68  53  59 CALM      30.19R
CREWE*         FAIR      63  55  74 CALM      30.20S
FORT PICKETT*  FAIR      64  53  66 W7        30.20S
CHASE CITY*    FAIR      65  51  60 CALM      30.20S
CLARKSVILLE*   FAIR      63  52  67 CALM      30.20R
SOUTH HILL*    CLEAR     64  55  73 CALM      30.25S
LAWRENCEVILLE* FAIR      64  54  69 CALM      30.20R
EMPORIA*       CLEAR     61  52  72 CALM      30.22R
$$

VAZ088>098-210000-
SOUTHEAST VIRGINIA

CITY           SKY/WX    TMP DP  RH WIND       PRES   REMARKS
NORFOLK        CLEAR     65  58  78 CALM      30.19R
VIRGINIA BEACH PTCLDY    63  55  75 CALM      30.19R
NORFOLK NAVAL  PTCLDY    63  56  78 CALM      30.21R
WEST POINT*    CLEAR     61  57  87 CALM      30.21R
SALUDA*        FAIR      62  61  95 CALM      30.20R
NEWPORT NEWS   CLEAR     63  59  87 E3        30.20R
LANGLEY AFB    CLEAR     64  57  77 E3        30.19R
FORT EUSTIS    CLEAR     66  56  70 CALM      30.17R
WILLIAMSBURG*  CLEAR     66  61  82 CALM      30.20R
HR EXEC AP*    NOT AVBL
FRANKLIN*      CLEAR     63  56  78 CALM      30.20R
US460-WAKEFLD  CLEAR     63  60  90 CALM      30.19R
$$

VAZ020-022-025-037-045-210000-
WEST CENTRAL AND SOUTHWEST VIRGINIA

CITY           SKY/WX    TMP DP  RH WIND       PRES   REMARKS
STAUNTON*      CLEAR     60  47  61 NE3       30.24R
WAYNESBORO*    CLEAR     65  49  57 CALM      30.23R
HOT SPRINGS VA CLEAR     60  45  57 CALM      30.31S
LYNCHBURG      CLEAR     62  50  64 CALM      30.22R
DANVILLE       CLEAR     62  53  72 CALM      30.21R
SOUTH BOSTON*  FAIR      66  49  54 CALM      30.20S
MARTINSVILLE   CLEAR     60  53  76 CALM      30.24R
ROANOKE        CLEAR     69  51  52 SE5       30.23S
BLACKSBURG     CLEAR     62  50  64 CALM      30.29R
DUBLIN*        CLEAR     68  49  51 CALM      30.27R
MARION*        CLEAR     66  40  37 CALM      30.29R
HILLSVILLE*    CLEAR     64  42  45 CALM      30.26S
RICHLANDS*     FAIR      65 -18   3 NE5       30.28R
WISE*          CLEAR     63  46  55 N5        30.29S
ABINGDON*      CLEAR     66  49  54 CALM      30.25S
$$

MDZ021>025-VAZ099-100-210000-
SOUTHERN MARYLAND AND THE DELMARVA PENINSULA

CITY           SKY/WX    TMP DP  RH WIND       PRES   REMARKS
PATUXENT RIVER PTCLDY    59  53  80 SW3       30.19R
BAY BRIDGE APT CLEAR     64  50  59 CALM      30.19R
LEONARDTOWN    NOT AVBL
DOVER          CLEAR     68  43  40 W2        30.14S
GEORGETOWN     CLEAR     62  47  57 CALM      30.20R
EASTON         CLEAR     64  48  55 CALM      30.23R
CAMBRIDGE      CLEAR     61  55  82 CALM      30.20R
SALISBURY      CLEAR     65  46  50 CALM      30.19R
OCEAN CITY     CLEAR     61  56  83 CALM      30.20R
WALLOPS ISLAND CLEAR     61  59  93 CALM      30.19R
ACCOMACK*      CLEAR     61  53  75 CALM      30.20R
$$

NCZ012>017-030>032-210000-
NORTH CENTRAL AND EASTERN NORTH CAROLINA

CITY           SKY/WX    TMP DP  RH WIND       PRES   REMARKS
ROANOKE RAPIDS FAIR      63  57  82 CALM      30.20R
RALEIGH        PTCLDY    66  54  65 CALM      30.21R
ELIZABETH CITY CLEAR     65  57  75 CALM      30.20R
AHOSKIE*       CLEAR     64  56  77 CALM      30.20R
EDENTON*       CLEAR     67  58  72 CALM      30.20R
CURRITUCK*     CLEAR     64  58  83 CALM      30.20S
KILL DEVIL HLS CLEAR     65  57  75 CALM      30.18S
MANTEO         CLEAR    N/A N/A N/A CALM      30.20R
CAPE HATTERAS  CLEAR     62  58  86 CALM      30.20R
TARBORO*       NOT AVBL
GOLDSBORO      CLEAR     67  53  61 CALM      30.17S
WASHINGTON     CLEAR     65  58  76 CALM      30.19R
GREENVILLE     CLEAR     63  54  72 CALM      30.20R
NEW BERN       CLEAR     65  60  84 CALM      30.19R
WILMINGTON     CLEAR     67  55  65 S3        30.19R
$$

VAZ048-210000-
ELSEWHERE

CITY           SKY/WX    TMP DP  RH WIND       PRES   REMARKS
HARRISBURG PA  PTCLDY    60  53  77 CALM      30.20R
BALTIMORE      PTCLDY    65  45  48 NW3       30.20R
ANNAPOLIS      CLEAR     67  57  70 NW3       30.19R
ANDREWS AFB    CLEAR     67  45  44 NW5       30.20R
PHILADELPHIA   PTCLDY    70  36  28 W9        30.18R
HENDERSON NC   CLEAR     64  51  63 CALM      30.20S
GREENSBORO     PTCLDY    70  47  43 NE3       30.21R
ROCKY MOUNT    CLEAR     61  57  87 CALM      30.20R
$$

VAZ100-210000-
MARINE

STATION/POSITION TIME  TEMP    WIND        PRES    WAVE   SWELL
                       AIR SEA DIR/SP/G            HT/PER HT/PER
                 (UTC) (F)     (DEG/KT/KT) (MB)    (FT/S) (FT/S)
BRANDYWINE LGT   2236                      1022.2R
CAPE MAY NJ      2236      65              1021.4R
LEWES DE         2236      66              1021.8R
15NM E FENWICK I 2250   69 67  320/ 10/ 12 1022.2R   3/ 8   2/ 8
OCEAN-CITY-INLET 2236      67              1022.5R
WACHAPREAGUE VA  2236      67              1022.3R
THOMAS POINT MD  2300   68 68  220/  4/  4   N/A
GOOSES REEF MD   2300   69 69  260/  2/  4 1017.8    0
COVE POINT MD    2236                      1023.0R
SOLOMONS ISLAND  2236      70              1022.0R
BISHOPS HEAD MD  2236      67              1022.7R
PINEY POINT MD   2148          310/  9/ 10   N/A
POTOMAC MD       2300   69 69   60/  2/  4 1022.0
CAMBRIDGE MD     2236      67              1023.2R
LEWISETTA VA     2236      65              1022.3R
RAPPAHANNOCK LGT 2236                      1023.0R
STINGRAY PT      2300   69 69   60/  4/  6 1023.0    1/ 3
YORK RVR RNG VA  2236                      1022.9R
YORKTOWN VA      2236      70              1022.1R
JAMESTOWN VA     2300      70   CALM  /  2   N/A     0
DOMINION TERM VA 2236                      1022.5R
KIPTOPEKE VA     2236      69                N/A
CAPE HENRY VA    2230   68     330/  3/  4   N/A
WILLOUBY STN VA  2236                      1022.5R
S CRANEY ISL VA  2236                      1022.1R
CAPE HENRY BUOY  2300      70                N/A     2/ 9
1ST LANDING BUOY 2300   69 69              1022.4    1/ 4
CAPE CHARLES BUO 2251      70                N/A     2/ 9
64NM E OF VA BCH 2250   67 68  360/  8/  8 1022.7R   3/ 8   3/ 8
DUCK PIER NC     2236      71              1021.9R
44100 DUCK FRF   2235      71                N/A     3/ 8
44056 DUCK FRF   2300      70                N/A     2/ 8
OREGON INLET NC  2236      69              1022.2S
HATTERAS NC      2236      71              1022.3R
DIAMOND SHLS NC  2250   73 81   30/  4/  6 1022.3R   3/ 9   3/ 9
CAPE LOOKOUT NC  2300   72     150/  4/  4 1022.2R
$$




USA.gov is the U.S. government's official web portal to all federal, state and local government web resources and services.